GPS BIIF-9

Last updated on Thu Oct 16 2025 00:02:34 GMT+0000 (Coordinated Universal Time)

1 40534U 15013A 25287.75743576 -.00000040 00000+0 00000+0 0 9997 2 40534 53.2112 214.3314 0103993 36.9274 323.7894 2.00566088 76909
UTC large
Height (km)
Speed (km/s)
/
Latitude / Longitude
Inclination (degrees)
Orbital Period (minutes)
Azimuth
Elevation
Range (km)
Doppler Factor

Next 0 passes for location: London (51.5072 / 0.1276)

Sorry there are no passes over London.